[TLELIST] Archives

 

Current TLEs

May 16th 2007 PDT

HST 1 20580U 90037B 07133.94727589 +.00000383 +00000-0 +16916-4 0 08809 2 20580 028.4672 053.3884 0003865 099.1401 260.9624 15.00235864734819 ISS (ZARYA) 1 25544U 98067A 07133.93981946 +.00014961 +00000-0 +90227-4 0 01967 2 25544 051.6363 280.8590 0010012 178.5399 322.0043 15.77875259485360 CXO 1 25867U 99040B 07135.95833333 .00000400 00000-0 00000+0 0 706 2 25867 061.7062 089.9938 6185889 284.7030 002.5858 00.37807560 2137 ____________________________________________________________________ These 2-Line ...Continue Reading

Current TLEs

May 15th 2007 PDT

HST 1 20580U 90037B 07133.94727589 +.00000383 +00000-0 +16916-4 0 08809 2 20580 028.4672 053.3884 0003865 099.1401 260.9624 15.00235864734819 ISS (ZARYA) 1 25544U 98067A 07133.93981946 +.00014961 +00000-0 +90227-4 0 01967 2 25544 051.6363 280.8590 0010012 178.5399 322.0043 15.77875259485360 CXO 1 25867U 99040B 07135.95833333 .00000400 00000-0 00000+0 0 706 2 25867 061.7062 089.9938 6185889 284.7030 002.5858 00.37807560 2137 ____________________________________________________________________ These 2-Line ...Continue Reading

Current TLEs

May 14th 2007 PDT

HST 1 20580U 90037B 07133.54812340 .00000383 00000-0 16919-4 0 8730 2 20580 028.4671 055.9905 0003864 094.9206 265.1818 15.00235685734751 ISS (ZARYA) 1 25544U 98067A 07134.43810903 .00015000 00000-0 90386-4 0 1991 2 25544 051.6354 278.2840 0010097 180.9189 272.0155 15.77890774485442 CXO 1 25867U 99040B 07133.29166667 .00000506 00000-0 00000+0 0 695 2 25867 061.6809 090.0835 6184038 284.6960 359.6571 00.37809580 2121 ____________________________________________________________________ These 2-Line ...Continue Reading

Current TLEs

May 13th 2007 PDT

HST 1 20580U 90037B 07132.21761466 .00000402 00000-0 18380-4 0 8720 2 20580 028.4673 064.6653 0003827 081.9467 278.1558 15.00235255734550 ISS (ZARYA) 1 25544U 98067A 07133.15246528 .00015159 00000-0 91467-4 0 1935 2 25544 051.6365 284.9243 0009939 174.8754 170.2312 15.77851641485239 CXO 1 25867U 99040B 07133.29166667 .00000506 00000-0 00000+0 0 695 2 25867 061.6809 090.0835 6184038 284.6960 359.6571 00.37809580 2121 ____________________________________________________________________ These 2-Line ...Continue Reading

Current TLEs

May 12th 2007 PDT

HST 1 20580U 90037B 07132.21761466 .00000402 00000-0 18380-4 0 8720 2 20580 028.4673 064.6653 0003827 081.9467 278.1558 15.00235255734550 ISS (ZARYA) 1 25544U 98067A 07132.46825816 .00018159 00000-0 10879-3 0 1908 2 25544 051.6365 288.4588 0010199 172.2423 243.8027 15.77840033485137 CXO 1 25867U 99040B 07133.29166667 .00000506 00000-0 00000+0 0 695 2 25867 061.6809 090.0835 6184038 284.6960 359.6571 00.37809580 2121 ____________________________________________________________________ These 2-Line ...Continue Reading

Current TLEs

May 11th 2007 PDT

HST 1 20580U 90037B 07130.88710561 .00000373 00000-0 16117-4 0 8713 2 20580 028.4672 073.3402 0003819 068.5622 291.5374 15.00234404734351 ISS (ZARYA) 1 25544U 98067A 07131.46172501 .00020325 00000-0 12140-3 0 1847 2 25544 051.6365 293.6571 0010404 169.2040 285.7383 15.77811893484970 CXO 1 25867U 99040B 07130.62500000 .00000531 00000-0 00000+0 0 689 2 25867 061.6619 090.1442 6179017 284.7012 356.7027 00.37806995 2115 ____________________________________________________________________ These 2-Line ...Continue Reading

Current TLEs

May 10th 2007 PDT

HST 1 20580U 90037B 07129.62312071 .00000362 00000-0 15224-4 0 8702 2 20580 028.4671 081.5818 0003768 054.9790 305.1149 15.00233745734168 ISS (ZARYA) 1 25544U 98067A 07130.44843233 .00021269 00000-0 12705-3 0 1789 2 25544 051.6359 298.8904 0010422 164.7103 290.8024 15.77773965484819 CXO 1 25867U 99040B 07130.62500000 .00000531 00000-0 00000+0 0 689 2 25867 061.6619 090.1442 6179017 284.7012 356.7027 00.37806995 2115 ____________________________________________________________________ These 2-Line ...Continue Reading

Current TLEs

May 9th 2007 PDT

HST 1 20580U 90037B 07128.49218673 .00000363 00000-0 15301-4 0 8694 2 20580 028.4660 088.9621 0003683 042.3092 317.7773 15.00233408733999 ISS (ZARYA) 1 25544U 98067A 07129.48978817 .00017151 00000-0 10351-3 0 1711 2 25544 051.6357 303.8402 0010650 162.8243 243.9576 15.77717839484666 CXO 1 25867U 99040B 07128.00000000 .00000505 00000-0 00000+0 0 673 2 25867 061.6477 090.1950 6174118 284.7298 359.3590 00.37805337 2106 ____________________________________________________________________ These 2-Line ...Continue Reading

Current TLEs

May 8th 2007 PDT

HST 1 20580U 90037B 07127.36125155 .00000406 00000-0 18710-4 0 8685 2 20580 028.4659 096.3368 0003625 030.7188 329.3614 15.00233207733823 ISS (ZARYA) 1 25544U 98067A 07128.48375272 .00016367 00000-0 99152-4 0 1654 2 25544 051.6351 309.0355 0010518 158.6352 290.2656 15.77678223484502 CXO 1 25867U 99040B 07128.00000000 .00000505 00000-0 00000+0 0 673 2 25867 061.6477 090.1950 6174118 284.7298 359.3590 00.37805337 2106 ____________________________________________________________________ These 2-Line ...Continue Reading

Mail list restored

May 8th 2007 PDT

Subscribers, There were some software issues on the server regarding the mail software, compounded by the move. This was due to running very latest releases of perl and php. There was also a complex selinux policy as well. All mail lists are restored and operating as of 10:30 UTC 8th May 2007. Sorry for any inconvenience. Thanks! ____________________________________________________________________ These 2-Line Elements (TLEs) are direct from DoD/ USSTRATCOM/ US Space Command with permission. Updates are provid ...Continue Reading
  • This mailing list is a public mailing list - anyone may join or leave, at any time.
  • This mailing list is announce-only.

International Space Station (ISS) / Hubble Space Telescope (HST) / Chandra X-Ray Observatory Orbital Data via EMAIL

Privacy Policy:

Private list